GW4674 Weather Reports


Display with metric or nautical units.
time (UTC)temp
F
wind
direction
speed
MPH
gust
MPH
rain 1hr
in
rain 24hr
in
rain mn
in
humidity
%
barometer
mb
20260901171754 71 29 13.0 16.0 0.00 0.91 0.91 99 1021.8
20260901171253 71 29 13.0 16.0 0.00 0.91 0.91 99 1021.9
20260901170752 71 29 13.0 16.0 0.00 0.91 0.91 99 1022.0
20260901170247 71 29 13.0 16.0 0.00 0.91 0.91 99 1021.7
20260901165746 71 29 13.0 16.0 0.00 0.91 0.91 99 1021.9
20260901165241 71 29 13.0 16.0 0.00 0.91 0.91 99 1021.8
20260901164737 71 29 13.0 16.0 0.00 0.91 0.91 99 1021.8
20260901164233 70 29 13.0 16.0 0.00 0.91 0.91 99 1022.0
20260901163728 70 29 13.0 16.0 0.00 0.91 0.91 99 1022.2
20260901163227 70 29 13.0 16.0 0.00 0.91 0.91 99 1022.2
20260901162722 70 29 13.0 16.0 0.00 0.91 0.91 99 1022.5
20260901162221 70 29 13.0 16.0 0.00 0.91 0.91 99 1022.5
20260901161720 70 29 13.0 16.0 0.00 0.91 0.91 99 1022.7
20260901161215 70 29 13.0 16.0 0.00 0.91 0.91 99 1022.7
20260901160712 70 29 13.0 16.0 0.00 0.91 0.91 99 1022.7
20260901160207 70 29 13.0 16.0 0.00 0.91 0.91 99 1023.0
20260901155705 69 29 13.0 16.0 0.00 0.91 0.91 99 1023.2
20260901155201 69 29 13.0 16.0 0.00 0.91 0.91 99 1023.3
20260901154656 69 29 13.0 16.0 0.00 0.91 0.91 99 1023.4
20260901154150 69 29 13.0 16.0 0.00 0.91 0.91 99 1023.1
20260901153646 69 29 13.0 16.0 0.00 0.91 0.91 99 1023.3
20260901153139 69 29 13.0 16.0 0.00 0.91 0.91 99 1023.2
20260901152634 69 29 13.0 16.0 0.00 0.91 0.91 99 1023.0
20260901152132 69 29 13.0 16.0 0.00 0.91 0.91 99 1022.9
20260901151629 69 29 13.0 16.0 0.00 0.91 0.91 99 1022.7
20260901151127 69 29 13.0 16.0 0.00 0.91 0.91 99 1022.9
20260901150621 69 29 13.0 16.0 0.00 0.91 0.91 99 1022.8
20260901150120 69 29 13.0 16.0 0.00 0.91 0.91 99 1022.6
20260901145619 69 29 13.0 16.0 0.02 0.91 0.91 99 1023.0
20260901145118 69 29 13.0 16.0 0.02 0.91 0.91 99 1022.9
20260901144614 69 29 13.0 16.0 0.00 0.91 0.91 99 1022.6
20260901144109 69 29 13.0 16.0 0.02 0.91 0.91 99 1023.1
20260901143603 69 29 13.0 16.0 0.02 0.91 0.91 99 1023.0
20260901143055 69 29 13.0 16.0 0.05 0.91 0.91 99 1023.1
20260901142550 69 29 13.0 16.0 0.02 0.90 0.90 99 1023.1
20260901142049 69 29 13.0 16.0 0.05 0.90 0.90 99 1022.8
20260901141544 69 29 13.0 16.0 0.05 0.90 0.90 99 1023.0
20260901141039 69 29 13.0 16.0 0.14 0.89 0.89 99 1023.2
20260901140538 69 29 13.0 16.0 0.14 0.89 0.89 99 1023.5
20260901140033 68 29 13.0 16.0 0.07 0.87 0.87 99 1023.3
20260901135532 68 29 13.0 16.0 0.09 0.86 0.86 99 1023.0
20260901135027 68 29 13.0 16.0 0.09 0.86 0.86 99 1023.0
20260901134524 68 29 13.0 16.0 0.09 0.85 0.85 99 1023.2
20260901134024 68 29 13.0 16.0 0.09 0.84 0.84 99 1023.3
20260901133522 68 29 13.0 16.0 0.05 0.83 0.83 99 1023.4
20260901133021 68 29 13.0 16.0 0.12 0.82 0.82 99 1023.3
20260901132515 68 29 13.0 16.0 0.28 0.81 0.81 99 1023.1
20260901132014 68 29 13.0 16.0 0.71 0.80 0.80 99 1023.4
20260901131509 68 29 13.0 16.0 0.76 0.76 0.76 99 1023.4
20260901131004 68 29 13.0 16.0 0.24 0.67 0.67 99 1023.6
20260901130459 68 29 13.0 16.0 0.00 0.63 0.63 99 1023.6
20260901125956 68 29 13.0 16.0 0.00 0.63 0.63 99 1023.3
20260901125451 68 29 13.0 16.0 0.00 0.63 0.63 99 1023.2
20260901124950 68 29 13.0 16.0 0.00 0.63 0.63 99 1023.3
20260901124446 68 29 13.0 16.0 0.00 0.63 0.63 99 1023.2
20260901123940 68 29 13.0 16.0 0.00 0.63 0.63 99 1023.2
20260901123436 68 29 13.0 16.0 0.00 0.63 0.63 99 1023.1
20260901122933 68 29 13.0 16.0 0.00 0.63 0.63 99 1023.1
20260901122428 68 29 13.0 16.0 0.00 0.63 0.63 99 1023.1
20260901121927 67 29 13.0 16.0 0.00 0.63 0.63 99 1023.1
20260901121423 67 29 13.0 16.0 0.00 0.63 0.63 99 1023.1
20260901120918 67 29 13.0 16.0 0.00 0.63 0.63 99 1023.1
20260901120417 67 29 13.0 16.0 0.00 0.63 0.63 99 1023.0
20260901115913 67 29 13.0 16.0 0.00 0.63 0.63 99 1023.1
20260901115413 67 29 13.0 16.0 0.02 0.63 0.63 99 1023.4
20260901114910 67 29 13.0 16.0 0.02 0.63 0.63 99 1023.4
20260901114406 67 29 13.0 16.0 0.00 0.63 0.63 99 1023.4
20260901113904 67 29 13.0 16.0 0.02 0.63 0.63 99 1023.2
20260901113403 67 29 13.0 16.0 0.02 0.63 0.63 99 1023.4
20260901112859 67 29 13.0 16.0 0.02 0.63 0.63 99 1023.3
20260901112353 67 29 13.0 16.0 0.00 0.62 0.62 99 1023.1
20260901111848 67 29 13.0 16.0 0.00 0.62 0.62 99 1022.9
20260901111346 67 29 13.0 16.0 0.00 0.62 0.62 99 1022.8
20260901110845 67 29 13.0 16.0 0.00 0.62 0.62 99 1023.0
20260901110336 67 29 13.0 16.0 0.00 0.62 0.62 99 1023.3
20260901105831 67 29 13.0 16.0 0.00 0.62 0.62 99 1023.4
20260901105326 67 29 13.0 16.0 0.00 0.62 0.62 99 1023.3
20260901104822 66 29 13.0 16.0 0.00 0.62 0.62 99 1023.3
20260901104317 66 29 13.0 16.0 0.00 0.62 0.62 99 1023.3
20260901103813 66 29 13.0 16.0 0.00 0.62 0.62 99 1023.1
20260901103312 66 29 13.0 16.0 0.00 0.62 0.62 99 1023.2
20260901102807 66 29 13.0 16.0 0.00 0.62 0.62 99 1023.4
20260901102306 66 29 13.0 16.0 0.00 0.62 0.62 99 1023.2
20260901101758 66 29 13.0 16.0 0.00 0.62 0.62 99 1022.9
20260901101257 66 29 13.0 16.0 0.00 0.62 0.62 99 1023.1
20260901100756 66 29 13.0 16.0 0.00 0.62 0.62 99 1023.1
20260901100251 66 29 13.0 16.0 0.00 0.62 0.62 99 1023.0
20260901095749 66 29 13.0 16.0 0.00 0.62 0.62 99 1022.8
20260901095248 66 29 13.0 16.0 0.00 0.62 0.62 99 1023.0
20260901094742 66 29 13.0 16.0 0.00 0.62 0.62 99 1023.2
20260901094237 66 29 13.0 16.0 0.00 0.62 0.62 99 1023.2
20260901093732 66 29 13.0 16.0 0.00 0.62 0.62 99 1023.0
20260901093231 66 29 13.0 16.0 0.00 0.62 0.62 99 1023.2
20260901092727 66 29 13.0 16.0 0.00 0.62 0.62 99 1023.0
20260901092223 66 29 13.0 16.0 0.00 0.62 0.62 99 1023.3
20260901091718 66 29 13.0 16.0 0.00 0.62 0.62 99 1023.3
20260901091214 66 29 13.0 16.0 0.00 0.62 0.62 99 1023.3
20260901090708 66 29 13.0 16.0 0.00 0.62 0.62 99 1023.1
20260901090203 66 29 13.0 16.0 0.00 0.62 0.62 99 1023.0
20260901085659 66 29 13.0 16.0 0.00 0.62 0.62 99 1023.2
20260901085155 66 29 13.0 16.0 0.00 0.62 0.62 99 1023.2
20260901084651 66 29 13.0 16.0 0.00 0.62 0.62 99 1023.3
20260901084147 66 29 13.0 16.0 0.02 0.62 0.62 99 1023.3
20260901083646 66 29 13.0 16.0 0.00 0.62 0.62 99 1023.6
20260901083146 66 29 13.0 16.0 0.02 0.62 0.62 99 1023.5
20260901082639 66 29 13.0 16.0 0.02 0.62 0.62 99 1023.6
20260901082135 66 29 13.0 16.0 0.02 0.61 0.61 99 1023.6
20260901081630 66 29 13.0 16.0 0.05 0.61 0.61 99 1023.6
20260901081125 66 29 13.0 16.0 0.02 0.61 0.61 99 1023.7
20260901080620 66 29 13.0 16.0 0.00 0.61 0.61 99 1023.9
20260901080119 66 29 13.0 16.0 0.02 0.61 0.61 99 1023.7
20260901075614 66 29 13.0 16.0 0.00 0.60 0.60 99 1023.9
20260901075114 66 29 13.0 16.0 0.02 0.60 0.60 99 1023.8
20260901074613 66 29 13.0 16.0 0.02 0.60 0.60 99 1023.7
20260901074113 66 29 13.0 16.0 0.00 0.60 0.60 99 1023.6
20260901073610 66 29 13.0 16.0 0.00 0.60 0.60 99 1023.9
20260901073105 66 29 13.0 16.0 0.00 0.60 0.60 99 1023.8
20260901072600 66 29 13.0 16.0 0.02 0.60 0.60 99 1023.9
20260901072055 66 29 13.0 16.0 0.02 0.60 0.60 99 1024.0
20260901071555 67 29 13.0 16.0 0.02 0.59 0.59 99 1023.9
20260901071054 67 29 13.0 16.0 0.05 0.59 0.59 99 1023.9
20260901070549 67 29 13.0 16.0 0.05 0.59 0.59 99 1023.9
20260901070044 66 29 13.0 16.0 0.05 0.59 0.59 99 1024.0
20260901065538 66 29 13.0 16.0 0.05 0.58 0.58 99 1024.0
20260901065033 66 29 13.0 16.0 0.12 0.58 0.58 99 1023.9
20260901064530 66 29 13.0 16.0 0.31 0.57 0.57 99 1023.9
20260901064026 66 29 13.0 16.0 0.47 0.56 0.56 99 1024.0
20260901063518 66 29 13.0 16.0 0.71 0.52 0.52 99 1023.9
20260901063014 66 29 13.0 16.0 0.97 0.47 0.47 99 1023.9
20260901062509 67 29 13.0 16.0 0.83 0.38 0.38 99 1024.2
20260901062005 67 29 13.0 16.0 0.50 0.29 0.29 99 1024.4
20260901061501 66 29 13.0 16.0 0.45 0.24 0.24 99 1024.4
20260901061000 66 29 13.0 16.0 0.40 0.21 0.21 99 1024.3
20260901060455 67 29 13.0 16.0 0.33 0.17 0.17 99 1024.4
20260901055949 67 29 13.0 16.0 0.35 0.14 0.14 99 1024.4
20260901055446 67 29 13.0 16.0 0.26 0.11 0.11 99 1024.3
20260901054942 67 29 13.0 16.0 0.14 0.08 0.08 99 1024.5
20260901054439 67 29 13.0 16.0 0.12 0.06 0.06 99 1024.3
20260901053935 67 29 13.0 16.0 0.09 0.05 0.05 99 1024.5
20260901053430 67 29 13.0 16.0 0.02 0.04 0.04 99 1024.5
20260901052925 67 29 13.0 16.0 0.02 0.04 0.04 99 1024.6
20260901052421 67 29 13.0 16.0 0.05 0.03 0.03 99 1024.6
20260901051919 67 29 13.0 16.0 0.09 0.03 0.03 99 1024.5
20260901051415 67 29 13.0 16.0 0.09 0.02 0.02 99 1024.4
20260901050909 67 29 13.0 16.0 0.02 0.01 0.01 99 1024.6
20260901050405 67 29 13.0 16.0 0.00 0.00 0.00 99 1024.5
20260901045900 67 29 13.0 16.0 0.02 0.00 0.00 99 1024.7
20260901045359 67 29 13.0 16.0 0.02 0.00 0.00 99 1024.6
20260901044855 67 29 13.0 16.0 0.00 0.00 0.00 99 1024.7
20260901044351 67 29 13.0 16.0 0.00 0.00 0.00 99 1024.5
20260901043847 67 29 13.0 16.0 0.00 0.00 0.00 99 1024.9
20260901043343 67 29 13.0 16.0 0.00 0.00 0.00 99 1024.8
20260901042842 67 29 13.0 16.0 0.00 0.00 0.00 99 1024.9
20260901042337 67 29 13.0 16.0 0.00 0.00 0.00 99 1024.8
20260901041832 67 29 13.0 16.0 0.00 0.00 0.00 99 1024.8
20260901041328 67 29 13.0 16.0 0.00 0.00 0.00 99 1024.8
20260901040828 67 29 13.0 16.0 0.00 0.00 0.00 99 1024.8
20260901040327 67 29 13.0 16.0 0.00 0.00 0.00 99 1024.9
20260901035826 67 29 13.0 16.0 0.00 0.00 0.00 99 1025.0
20260901035325 67 29 13.0 16.0 0.00 0.00 0.00 99 1024.8
20260901034824 67 29 13.0 16.0 0.02 0.00 0.00 99 1024.7
20260901034319 67 29 13.0 16.0 0.02 0.00 0.00 99 1024.7
20260901033819 67 29 13.0 16.0 0.00 0.00 0.00 99 1024.8
20260901033318 67 29 13.0 16.0 0.00 0.00 0.00 99 1024.7
20260901032817 67 29 13.0 16.0 0.00 0.00 0.00 99 1024.9
20260901032316 67 29 13.0 16.0 0.00 0.00 0.00 99 1025.1
20260901031812 67 29 13.0 16.0 0.00 0.00 0.00 99 1025.2
20260901031308 67 29 13.0 16.0 0.00 0.00 0.00 99 1025.2
20260901030807 67 29 13.0 16.0 0.00 0.00 0.00 99 1025.2
20260901030303 67 29 13.0 16.0 0.00 0.00 0.00 99 1025.4
20260901025802 67 29 13.0 16.0 0.00 0.00 0.00 99 1025.3
20260901025257 67 29 13.0 16.0 0.00 0.00 0.00 99 1025.4
20260901024752 67 29 13.0 16.0 0.00 0.00 0.00 98 1025.3
20260901024251 67 29 13.0 16.0 0.00 0.00 0.00 98 1025.5
20260901023748 67 29 13.0 16.0 0.00 0.00 0.00 98 1025.4
20260901023244 67 29 13.0 16.0 0.00 0.00 0.00 98 1025.5
20260901022739 67 29 13.0 16.0 0.00 0.00 0.00 98 1025.6
20260901022235 67 29 13.0 16.0 0.00 0.00 0.00 98 1025.4
20260901021730 67 29 13.0 16.0 0.00 0.00 0.00 98 1025.3
20260901021225 67 29 13.0 16.0 0.00 0.00 0.00 98 1025.6
20260901020721 67 29 13.0 16.0 0.00 0.00 0.00 98 1025.5
20260901020216 67 29 13.0 16.0 0.00 0.00 0.00 98 1025.5
20260901015711 67 29 13.0 16.0 0.00 0.00 0.00 98 1025.4
20260901015207 67 29 13.0 16.0 0.00 0.00 0.00 98 1025.3
20260901014701 67 29 13.0 16.0 0.00 0.00 0.00 98 1025.4
20260901014157 67 29 13.0 16.0 0.00 0.00 0.00 98 1025.5
20260901013653 67 29 13.0 16.0 0.00 0.00 0.00 98 1025.4
20260901013148 67 29 13.0 16.0 0.00 0.00 0.00 98 1025.4
20260901012648 67 29 13.0 16.0 0.00 0.00 0.00 98 1025.5
20260901012143 67 29 13.0 16.0 0.00 0.00 0.00 98 1025.3
20260901011639 67 29 13.0 16.0 0.00 0.00 0.00 98 1025.6
20260901011138 67 29 13.0 16.0 0.00 0.00 0.00 98 1025.6
20260901010634 67 29 13.0 16.0 0.00 0.00 0.00 98 1025.5
20260901010133 67 29 13.0 16.0 0.00 0.00 0.00 98 1025.7
20260901005632 67 29 13.0 16.0 0.00 0.00 0.00 98 1025.5
20260901005127 67 29 13.0 16.0 0.00 0.00 0.00 98 1025.4
20260901004626 67 29 13.0 16.0 0.00 0.00 0.00 98 1025.4
20260901004122 67 29 13.0 16.0 0.00 0.00 0.00 98 1025.4
20260901003617 67 29 13.0 16.0 0.00 0.00 0.00 98 1025.5
20260901003116 67 29 13.0 16.0 0.00 0.00 0.00 97 1025.3
20260901002615 67 29 13.0 16.0 0.00 0.00 0.00 97 1025.3
20260901002110 67 29 13.0 16.0 0.00 0.00 0.00 97 1025.3
20260901001605 67 29 13.0 16.0 0.00 0.00 0.00 97 1025.3
20260901001100 67 29 13.0 16.0 0.00 0.00 0.00 97 1025.3
20260901000555 67 29 13.0 16.0 0.00 0.00 0.00 97 1025.3
20260901000051 67 29 13.0 16.0 0.00 0.00 0.00 97 1025.2
20260831235545 68 29 13.0 16.0 0.00 0.00 0.00 97 1025.4
20260831235041 68 29 13.0 16.0 0.00 0.00 0.00 97 1025.3
20260831234540 68 29 13.0 16.0 0.00 0.00 0.00 96 1025.5
20260831234036 68 29 13.0 16.0 0.00 0.00 0.00 96 1025.5
20260831233531 68 29 13.0 16.0 0.00 0.00 0.00 96 1025.4
20260831233026 68 29 13.0 16.0 0.00 0.00 0.00 95 1025.6
20260831232521 68 29 13.0 16.0 0.00 0.00 0.00 95 1025.6
20260831232018 68 29 13.0 16.0 0.00 0.00 0.00 95 1025.7
20260831231514 68 29 13.0 16.0 0.00 0.00 0.00 94 1025.7
20260831231009 68 29 13.0 16.0 0.00 0.00 0.00 94 1025.8
20260831230505 69 29 13.0 16.0 0.00 0.00 0.00 93 1025.8
20260831230004 69 29 13.0 16.0 0.00 0.00 0.00 92 1025.8
20260831225500 69 29 13.0 16.0 0.00 0.00 0.00 91 1025.8
20260831224954 69 29 13.0 16.0 0.00 0.00 0.00 91 1025.9
20260831224450 70 29 13.0 16.0 0.00 0.00 0.00 91 1025.8
20260831223944 70 29 13.0 16.0 0.00 0.00 0.00 91 1026.0
20260831223439 70 29 13.0 16.0 0.00 0.00 0.00 91 1026.0
20260831222936 70 29 13.0 16.0 0.00 0.00 0.00 91 1026.0
20260831222432 70 29 13.0 16.0 0.00 0.00 0.00 91 1026.0
20260831221931 70 29 13.0 16.0 0.00 0.00 0.00 91 1025.8
20260831221427 70 29 13.0 16.0 0.00 0.00 0.00 90 1025.6
20260831220922 70 29 13.0 16.0 0.00 0.00 0.00 91 1025.9
20260831220418 70 29 13.0 16.0 0.00 0.00 0.00 90 1025.6
20260831215913 70 29 13.0 16.0 0.00 0.00 0.00 89 1025.7
20260831215409 70 29 13.0 16.0 0.00 0.00 0.00 88 1025.7
20260831214905 70 29 13.0 16.0 0.00 0.00 0.00 89 1025.6
20260831214402 70 29 13.0 16.0 0.00 0.00 0.00 89 1025.7
20260831213858 71 29 13.0 16.0 0.00 0.00 0.00 88 1025.6
20260831213355 70 29 13.0 16.0 0.00 0.00 0.00 87 1025.7
20260831212854 70 29 13.0 16.0 0.00 0.00 0.00 88 1025.8
20260831212351 70 29 13.0 16.0 0.00 0.00 0.00 87 1025.7
20260831211850 70 29 13.0 16.0 0.00 0.00 0.00 88 1025.7
20260831211350 70 29 13.0 16.0 0.00 0.00 0.00 87 1025.9
20260831210850 71 29 13.0 16.0 0.00 0.00 0.00 87 1025.7
20260831210346 71 29 13.0 16.0 0.00 0.00 0.00 87 1025.6
20260831205841 71 29 13.0 16.0 0.00 0.00 0.00 85 1025.8
20260831205337 71 29 13.0 16.0 0.00 0.00 0.00 85 1025.7
20260831204832 71 29 13.0 16.0 0.00 0.00 0.00 85 1025.7
20260831204330 71 29 13.0 16.0 0.00 0.00 0.00 84 1025.6
20260831203829 71 29 13.0 16.0 0.00 0.00 0.00 82 1025.7
20260831203324 71 29 13.0 16.0 0.00 0.00 0.00 83 1025.8
20260831202822 71 29 13.0 16.0 0.00 0.00 0.00 82 1025.7
20260831202318 72 29 13.0 16.0 0.00 0.00 0.00 82 1025.7
20260831201818 72 29 13.0 16.0 0.00 0.00 0.00 81 1025.6
20260831201316 72 29 13.0 16.0 0.00 0.00 0.00 81 1025.7
20260831200812 72 29 13.0 16.0 0.00 0.00 0.00 81 1025.8
20260831200307 72 29 13.0 16.0 0.00 0.00 0.00 80 1025.8
20260831195802 72 29 13.0 16.0 0.00 0.00 0.00 81 1026.0
20260831195258 72 29 13.0 16.0 0.00 0.00 0.00 80 1026.2
20260831194748 72 29 13.0 16.0 0.00 0.00 0.00 78 1026.4
20260831194244 73 29 13.0 16.0 0.00 0.00 0.00 77 1026.3
20260831193742 74 29 13.0 16.0 0.00 0.00 0.00 76 1026.4
20260831193238 74 29 13.0 16.0 0.00 0.00 0.00 76 1026.4
20260831192733 74 29 13.0 16.0 0.00 0.00 0.00 73 1026.4
20260831192228 75 29 13.0 16.0 0.00 0.00 0.00 72 1026.5
20260831191724 75 29 13.0 16.0 0.00 0.00 0.00 72 1026.5
20260831191220 75 29 13.0 16.0 0.00 0.00 0.00 68 1026.6
20260831190715 78 29 13.0 16.0 0.00 0.00 0.00 69 1026.6
20260831190214 76 29 13.0 16.0 0.00 0.00 0.00 66 1026.8
20260831185709 75 29 13.0 16.0 0.00 0.00 0.00 71 1026.9
20260831185205 74 29 13.0 16.0 0.00 0.00 0.00 68 1026.8
20260831184704 74 29 13.0 16.0 0.00 0.00 0.00 71 1026.8
20260831184200 75 29 13.0 16.0 0.00 0.00 0.00 72 1026.6
20260831183659 75 29 13.0 16.0 0.00 0.00 0.00 71 1026.6
20260831183159 75 29 13.0 16.0 0.00 0.00 0.00 72 1026.6
20260831182658 75 29 13.0 16.0 0.00 0.00 0.00 71 1026.6
20260831182154 74 29 13.0 16.0 0.00 0.00 0.00 69 1026.8
20260831181649 74 29 13.0 16.0 0.00 0.00 0.00 73 1026.8
20260831181143 74 29 13.0 16.0 0.00 0.00 0.00 70 1027.0
20260831180638 74 29 13.0 16.0 0.00 0.00 0.00 75 1027.0
20260831180133 75 29 13.0 16.0 0.00 0.00 0.00 75 1027.2
20260831175627 75 29 13.0 16.0 0.00 0.00 0.00 70 1027.2
20260831175125 75 29 13.0 16.0 0.00 0.00 0.00 73 1027.2
20260831174620 75 29 13.0 16.0 0.00 0.00 0.00 69 1027.2
20260831174119 75 29 13.0 16.0 0.00 0.00 0.00 69 1027.3
20260831173618 76 29 13.0 16.0 0.00 0.00 0.00 68 1027.2
20260831173115 76 29 13.0 16.0 0.00 0.00 0.00 68 1027.2
20260831172614 77 29 13.0 16.0 0.00 0.00 0.00 66 1027.2